Lapse_Rate
4.4 4.3 4.3 4.1 3.9 3.8 4.0 3.7 3.2 3.1 3.0 3.1 3.1 3.2 3.5 3.8 3.8 3.6 3.4 3.3 3.2 3.4 3.3 3.5 3.8 4.0 4.3 6.1 7.0 6.2 6.3 5.8 5.6 5.9 4.8 4.8 5.9 5.9 6.5 6.3 5.8 6.5 6.5 6.3 6.1 6.1 6.5
4.2 4.5 4.4 4.4 4.2 4.1 4.3 4.3 4.1 3.6 3.3 3.1 3.1 3.0 3.2 3.5 3.6 3.6 3.7 3.4 3.2 3.2 3.3 3.4 3.5 4.0 4.8 6.6 8.0 6.1 5.7 5.3 4.6 4.5 3.9 4.6 5.5 5.7 6.2 6.5 6.5 6.2 6.2 6.3 6.5 6.6 6.6
2.8 2.3 2.9 3.0 3.6 4.2 4.4 4.4 3.8 3.8 3.8 3.6 3.6 3.6 3.5 3.4 3.5 3.4 3.4 3.5 3.2 3.3 3.4 3.4 3.5 4.0 5.4 6.7 7.7 6.4 4.8 4.7 5.0 5.3 5.8 5.5 6.8 7.0 6.4 6.5 6.7 6.5 6.5 6.5 6.5 6.5 6.5
2.0 3.2 2.9 2.8 2.8 3.0 2.1 2.6 2.8 3.0 3.6 4.0 3.8 3.7 3.3 3.0 3.2 3.3 3.3 3.2 3.1 3.5 3.5 3.4 3.5 4.4 6.2 7.6 7.6 7.3 5.2 4.8 5.0 6.5 7.3 7.1 8.0 7.7 7.3 7.4 6.8 6.5 6.5 6.5 6.5 6.5 6.4
3.3 3.3 3.3 3.4 3.4 3.0 2.9 2.8 2.8 2.9 2.7 2.7 2.4 2.0 1.7 2.1 2.8 3.2 3.0 3.0 2.9 3.2 3.5 3.3 4.1 5.1 6.4 6.2 6.4 5.1 4.9 5.1 6.7 7.0 7.5 8.3 7.8 6.9 7.0 6.5 6.5 6.5 6.5 6.5 6.5 6.5 6.5
4.9 4.6 4.9 4.9 4.4 4.8 4.7 4.7 4.2 4.2 3.8 3.4 3.4 3.2 3.0 2.7 2.3 2.3 2.9 2.9 3.9 3.4 3.7 4.2 4.8 6.0 5.8 6.7 5.8 3.8 4.5 5.8 6.2 7.4 7.4 6.9 6.7 6.5 6.5 6.5 6.5 6.5 6.5 6.5 6.5 6.5 6.5
5.6 5.7 5.9 6.1 6.1 6.0 6.2 6.0 5.2 4.7 4.9 4.9 5.0 4.4 3.9 3.4 2.9 2.3 2.8 4.4 5.1 5.6 5.9 6.1 6.1 6.1 4.3 6.5 7.2 5.5 6.4 6.4 7.5 7.1 6.5 6.8 6.5 6.5 6.5 6.5 6.5 6.5 6.5 6.5 6.5 6.5 6.5
6.3 6.1 6.0 6.3 6.4 6.4 6.6 6.7 6.1 5.7 5.3 5.2 5.1 4.9 4.8 4.4 3.9 3.8 4.6 6.1 6.4 4.5 6.7 5.8 6.9 6.7 7.2 7.6 6.6 7.0 7.1 7.0 6.8 6.5 6.5 6.5 6.5 6.5 6.5 6.5 6.5 6.5 6.5 6.5 6.5 6.5 6.5
7.5 7.1 6.8 6.8 6.8 6.6 6.7 6.8 6.7 6.4 6.2 5.9 5.7 5.5 5.3 4.7 4.3 4.7 5.9 5.6 3.9 4.2 6.6 6.6 6.0 6.6 6.9 7.7 6.6 6.6 7.1 7.1 6.5 6.5 6.5 6.5 6.5 6.5 6.5 6.5 6.5 6.5 6.5 6.5 6.5 6.5 6.5
7.6 7.4 7.4 7.6 7.7 7.8 7.6 7.6 7.3 7.1 7.0 7.0 6.7 6.4 5.8 4.8 5.6 5.2 6.0 4.4 4.0 4.3 6.5 6.5 6.6 6.7 7.3 7.7 6.5 7.9 7.4 7.1 6.5 6.5 6.5 6.5 6.5 6.5 6.5 6.5 6.5 6.5 6.5 6.5 6.5 6.5 6.5
7.8 7.7 7.6 7.6 7.8 7.6 7.6 7.6 7.6 7.6 7.5 7.5 7.2 7.1 6.9 6.6 4.6 5.7 4.6 4.5 4.7 5.9 6.5 6.5 6.6 7.4 6.5 6.6 6.5 6.6 7.1 7.0 6.5 6.5 6.5 6.5 6.5 6.5 6.5 6.5 6.5 6.5 6.5 6.5 6.5 6.5 6.5
8.3 8.5 8.3 8.1 8.0 8.0 8.0 7.9 7.9 7.6 7.5 7.4 7.7 7.6 7.4 6.8 6.3 5.6 4.8 4.6 6.1 6.5 6.5 6.5 6.6 6.5 6.5 6.6 6.6 6.7 6.7 7.4 7.0 6.5 6.5 6.5 6.5 6.5 6.5 6.5 6.5 6.5 6.5 6.5 6.5 6.5 6.5
8.4 8.4 8.2 8.1 8.1 8.2 8.2 8.2 8.1 7.8 7.7 7.5 7.6 7.6 7.3 7.2 6.6 6.6 6.1 6.0 6.5 6.5 6.5 6.5 6.5 6.5 6.5 6.5 6.5 6.5 6.5 6.5 6.5 6.5 6.5 6.5 6.5 6.5 6.5 6.5 6.5 6.5 6.5 6.5 6.5 6.5 6.5
8.8 8.9 8.7 8.5 8.3 8.1 8.0 8.0 7.9 7.8 7.7 7.6 7.7 7.3 5.7 5.7 6.3 7.2 6.2 6.5 6.5 6.5 6.5 6.5 6.5 6.5 6.5 6.5 6.5 6.5 6.5 6.5 6.5 6.5 6.5 6.5 6.5 6.5 6.5 6.5 6.5 6.5 6.5 6.5 6.5 6.5 6.5
8.7 8.7 8.5 8.4 8.3 8.2 8.2 8.2 7.7 7.7 7.7 7.7 6.6 3.4 3.5 3.3 5.0 5.3 6.3 6.5 6.5 6.5 6.5 6.5 6.5 6.5 6.5 6.5 6.5 6.5 6.5 6.5 6.5 6.5 6.5 6.5 6.5 6.5 6.5 6.5 6.5 6.5 6.5 6.5 6.5 6.5 6.5
8.0 8.1 8.1 8.1 8.2 8.1 8.1 8.0 7.7 7.9 7.6 7.7 4.8 3.5 2.9 3.9 5.0 7.2 6.5 6.5 6.5 6.5 6.5 6.5 6.5 6.5 6.5 6.5 6.5 6.5 6.5 6.5 6.5 6.5 6.5 6.5 6.5 6.5 6.5 6.5 6.5 6.5 6.5 6.5 6.5 6.5 6.5
7.9 7.9 7.9 7.9 7.9 7.9 7.8 8.0 8.0 7.7 7.7 7.5 4.4 4.5 3.8 3.7 6.1 7.1 6.5 6.5 6.5 6.8 6.7 6.5 6.5 6.5 6.5 6.5 6.5 6.5 6.5 6.5 6.5 6.5 6.5 6.5 6.5 6.5 6.5 6.5 6.5 6.5 6.5 6.5 6.5 6.5 6.5
7.7 7.6 7.7 7.7 7.7 7.5 7.5 7.8 7.9 7.9 7.9 6.9 5.3 6.5 4.4 6.0 6.5 6.4 6.5 6.5 6.7 6.5 6.8 6.5 6.5 6.5 6.5 6.5 6.5 6.5 6.5 6.5 6.5 6.5 6.5 6.5 6.5 6.5 6.5 6.5 6.5 6.5 6.5 6.5 6.5 6.5 6.5
7.6 7.5 7.5 7.4 7.5 7.5 7.4 7.4 7.4 7.6 7.7 6.7 6.8 5.4 4.1 5.7 6.5 6.5 6.5 6.5 6.5 6.5 6.5 6.5 6.5 6.5 6.5 6.5 6.5 6.5 6.5 6.5 6.7 6.5 6.5 6.5 6.5 6.5 6.5 6.5 6.5 6.5 6.5 6.5 6.5 6.5 6.5
7.6 7.6 7.6 7.5 7.4 7.4 7.4 7.4 7.5 7.4 7.9 6.4 6.2 6.5 5.1 6.8 6.3 6.5 6.5 6.5 6.5 6.2 6.5 6.5 6.5 6.5 6.5 6.5 6.5 6.5 6.5 6.5 6.6 6.5 6.7 6.6 6.5 6.5 6.5 6.5 6.5 6.5 6.5 6.5 6.5 6.5 6.5
7.6 7.5 7.6 7.5 7.4 7.8 7.9 7.9 7.7 7.6 7.4 6.1 6.3 6.0 5.6 6.5 6.5 6.5 6.5 6.5 6.5 6.5 6.5 6.4 6.5 6.5 6.5 6.5 6.5 6.5 6.5 6.5 6.5 6.6 6.5 6.5 6.5 6.5 6.5 6.5 6.5 6.5 6.5 6.5 6.5 6.5 6.5
7.3 7.3 7.4 7.5 7.6 7.7 7.8 7.9 7.9 7.8 7.7 6.4 6.4 6.6 5.6 6.3 6.4 6.5 6.5 6.5 6.5 6.5 6.5 6.5 6.5 6.5 6.5 6.5 6.5 6.5 6.5 6.5 6.5 6.5 6.5 6.5 6.5 6.5 6.5 6.5 6.5 6.5 6.5 6.5 6.5 6.5 6.5
7.6 7.6 7.6 7.6 7.6 7.8 7.9 7.9 7.8 7.6 7.6 6.3 5.4 5.6 6.3 6.6 6.5 6.5 6.5 6.5 6.5 6.5 6.4 6.4 6.5 6.5 6.5 6.5 6.2 5.6 5.4 6.0 6.4 6.5 6.5 6.5 6.5 6.5 6.5 6.5 6.5 6.5 6.5 6.5 6.5 6.5 6.5
7.2 7.3 7.4 7.4 7.5 7.5 7.5 7.5 7.5 7.5 7.6 6.3 5.9 6.4 6.0 6.5 6.5 6.5 6.5 6.5 6.5 6.5 6.5 6.4 6.2 6.5 6.1 6.5 6.1 5.7 5.6 6.4 6.5 6.5 6.5 6.5 6.5 6.5 6.5 6.5 6.5 6.5 6.5 6.5 6.5 6.5 6.5
7.1 7.3 7.3 7.2 7.3 7.3 7.4 7.4 7.5 7.7 7.9 6.7 6.0 6.2 6.4 6.5 6.5 6.5 6.5 6.5 6.4 6.3 6.5 6.5 6.3 6.4 6.3 6.5 6.5 6.5 6.5 6.5 6.5 6.5 6.5 6.5 6.5 6.5 6.5 6.5 6.5 6.5 6.5 6.5 6.5 6.5 6.5
7.3 7.3 7.4 7.3 7.3 7.1 7.2 7.4 7.6 7.5 8.0 6.9 6.4 6.0 6.1 6.5 6.5 6.6 6.5 6.5 6.5 6.5 6.5 6.4 6.3 6.4 6.2 6.5 6.5 6.5 6.5 6.5 6.5 6.5 6.5 6.5 6.5 6.5 6.5 6.5 6.5 6.5 6.5 6.5 6.5 6.5 6.5
7.3 7.5 7.4 7.2 7.1 7.0 7.3 7.5 7.3 7.2 7.4 5.6 6.4 6.5 6.5 6.4 5.2 5.9 6.4 6.3 5.6 6.3 6.5 6.5 6.3 6.4 5.6 6.5 6.5 6.5 6.5 6.5 6.5 6.5 6.5 6.5 6.5 6.5 6.5 6.5 6.5 6.5 6.5 6.3 6.5 6.5 6.5
7.0 7.1 7.2 7.1 7.1 7.2 7.4 7.5 7.4 7.6 7.6 6.1 6.5 6.5 6.0 6.6 5.5 6.8 7.1 5.8 6.1 6.0 6.5 5.4 5.8 6.4 6.5 6.5 6.5 6.5 6.5 6.5 6.5 6.5 6.5 6.5 6.5 6.5 6.5 6.5 6.5 6.4 6.5 6.5 6.5 5.8 5.0
6.9 6.8 6.9 7.1 7.1 7.2 7.3 7.5 7.5 7.7 7.4 6.8 6.0 5.9 6.6 6.3 5.0 5.2 5.5 6.0 6.4 5.3 4.8 6.4 6.6 6.5 6.6 6.5 6.5 6.5 6.5 6.5 6.5 6.5 6.5 6.5 6.5 6.5 6.5 6.5 6.5 4.7 5.4 4.5 4.8 5.2 5.4
Wind_Speed
20 22 22 22 21 22 23 22 21 22 22 23 23 23 23 24 23 22 22 23 22 21 19 18 16 11 4 7 13 20 25 24 15 7 5 5 3 3 7 5 6 13 19 18 14 17 19
16 19 21 23 24 24 24 24 24 23 23 23 23 23 24 25 24 23 23 23 23 22 20 19 17 13 6 20 8 20 17 12 15 9 5 7 7 7 8 14 14 8 11 15 18 20 16
9 8 10 10 13 20 24 24 23 23 23 24 23 24 24 25 25 24 24 24 23 22 22 20 19 7 11 22 6 15 15 19 16 15 11 10 4 7 4 10 13 15 20 19 23 20 21
13 12 13 14 14 10 15 13 9 7 13 18 20 21 24 25 25 24 24 24 24 25 23 21 21 7 19 7 24 16 25 22 19 12 13 14 11 16 17 8 8 15 15 17 3 11 7
14 14 12 11 13 12 12 12 15 16 15 13 12 12 9 13 21 23 23 23 24 25 24 22 10 7 13 9 12 25 27 18 2 9 10 13 11 8 6 14 10 9 20 22 16 15 16
11 11 11 11 11 10 9 10 12 13 14 14 15 14 13 12 14 14 19 19 11 13 10 8 3 3 6 6 6 5 8 14 9 9 5 8 8 5 9 7 16 15 16 17 18 4 9
7 9 11 11 10 11 12 8 10 10 12 14 14 14 16 16 16 15 6 2 2 6 7 12 11 14 4 11 4 10 8 11 8 7 10 11 9 17 18 23 21 14 15 16 6 9 18
7 9 9 10 11 12 12 11 10 11 11 12 13 14 15 16 17 16 6 4 2 2 8 20 27 28 22 6 11 14 15 12 11 16 13 7 25 16 19 19 21 23 23 24 20 12 9
9 10 10 11 12 10 12 14 15 13 12 12 13 14 16 17 17 5 5 3 5 5 6 11 18 20 21 19 30 20 20 10 11 20 21 22 25 19 18 18 22 24 27 19 20 13 18
11 11 12 14 14 14 13 12 12 13 14 15 15 14 14 19 6 3 1 7 5 4 5 6 8 9 11 13 15 25 22 16 15 26 23 21 23 27 23 29 20 23 20 22 20 11 12
10 12 13 14 15 14 12 13 14 14 13 13 15 16 14 8 5 4 6 9 6 1 6 1 4 2 5 14 5 11 32 23 32 29 11 30 19 23 30 37 17 27 14 18 19 19 16
13 13 15 15 14 13 14 14 16 14 13 15 14 14 15 3 3 3 10 8 2 5 8 6 5 6 6 16 9 4 4 24 9 28 29 28 17 18 24 23 26 29 23 16 18 17 15
13 14 14 14 15 14 14 15 14 15 14 11 11 10 9 3 3 4 6 4 4 6 4 6 7 6 11 10 15 11 10 13 12 8 20 28 33 30 22 17 15 19 20 12 11 11 14
15 15 16 16 16 14 14 15 14 14 13 15 13 10 6 3 3 2 3 2 8 3 7 5 3 5 6 2 2 5 11 15 20 16 8 18 16 31 21 32 26 21 23 13 14 12 12
16 16 16 16 16 16 16 15 14 13 13 11 7 3 3 4 8 4 2 3 3 3 6 10 7 4 3 4 3 3 1 3 1 5 5 6 8 6 13 7 23 24 15 27 26 21 2
18 17 18 17 17 18 17 14 13 14 12 7 1 3 4 5 9 5 3 5 3 2 4 3 3 5 4 1 2 2 7 3 2 2 5 3 3 4 7 6 7 3 0 8 6 12 12
18 18 19 18 18 18 16 15 14 12 12 1 3 3 3 1 3 4 5 5 4 4 4 4 4 4 3 3 3 3 6 4 4 4 3 2 3 1 3 3 4 2 2 3 1 1 2
18 18 18 17 17 19 18 16 15 12 5 5 1 1 3 4 2 2 4 3 4 2 4 3 4 6 4 5 4 2 3 5 7 5 3 5 1 2 3 4 5 2 3 2 2 1 3
15 15 15 16 16 15 14 16 17 14 6 3 2 2 3 2 2 3 4 4 3 3 4 3 3 5 1 2 4 2 3 4 7 2 3 4 2 1 3 2 2 1 3 3 3 0 4
16 17 13 14 13 13 13 14 14 13 11 4 2 2 3 3 2 4 3 7 7 6 5 4 4 4 4 3 6 3 3 3 0 3 5 4 3 2 2 3 4 2 2 5 4 2 4
15 13 13 13 14 14 14 13 13 12 12 4 4 5 4 3 6 7 3 3 5 3 2 1 2 3 2 2 4 3 3 6 5 8 2 2 3 1 4 7 5 3 6 4 10 8 6
15 15 15 15 15 15 16 15 15 13 8 2 2 2 2 3 2 6 7 4 6 3 4 4 3 4 4 4 5 6 6 2 4 4 4 2 3 1 4 7 9 12 13 14 12 11 8
14 15 14 14 14 14 14 15 14 13 7 3 2 3 1 2 3 3 4 5 6 6 5 7 4 1 2 7 7 8 7 6 7 3 1 2 1 0 4 0 2 4 12 13 10 10 9
15 15 14 15 15 15 16 15 15 14 11 4 3 3 3 5 6 9 6 6 11 8 6 4 4 4 5 2 4 4 5 7 7 9 7 5 5 2 3 1 3 5 2 4 9 5 5
16 15 13 15 16 17 16 16 16 15 16 5 3 4 3 3 5 8 7 4 5 5 7 9 9 8 2 1 1 4 3 3 8 14 13 12 7 1 2 3 5 4 4 3 4 5 6
16 15 15 16 15 14 16 18 18 14 14 5 4 4 2 2 6 9 6 7 7 4 4 6 8 4 4 3 2 4 4 4 3 2 4 11 6 3 1 2 3 1 1 3 1 4 5
17 18 19 19 15 12 15 17 17 15 16 4 2 7 2 2 4 5 4 5 5 3 2 4 4 2 4 3 3 4 4 3 4 3 4 4 2 7 3 4 6 4 5 3 4 5 4
16 17 18 22 15 13 14 17 18 14 14 3 0 7 4 2 3 4 3 5 2 3 3 3 3 2 2 7 4 4 3 5 2 0 4 5 5 3 2 3 6 5 3 5 6 3 5
17 18 17 17 18 13 14 16 13 12 11 2 1 3 2 2 4 2 5 5 5 7 4 3 3 3 2 2 1 2 2 2 3 2 2 2 5 4 7 5 5 5 4 5 2 4 4
Wind_Direction
251 253 256 256 256 255 257 255 252 253 254 256 255 254 257 257 257 255 253 253 253 254 254 256 257 246 200 214 220 258 284 293 289 289 238 279 245 242 227 235 259 254 261 266 265 264 264
272 263 259 257 255 253 254 252 249 249 252 254 256 255 257 257 256 254 254 250 248 247 246 245 244 234 223 248 177 241 258 264 258 260 213 195 209 216 259 248 242 264 277 280 276 270 264
19 22 20 5 310 272 263 257 250 250 253 253 253 253 253 255 255 251 249 248 246 245 243 239 237 219 233 249 171 215 237 235 237 227 238 237 235 227 308 281 252 262 268 275 261 266 261
57 51 40 31 21 35 32 24 16 324 308 277 267 263 260 256 251 251 249 247 242 242 238 234 233 233 260 186 216 213 251 247 243 246 233 247 240 251 238 254 267 270 270 274 233 236 273
41 39 39 31 23 28 31 28 25 26 20 16 18 14 348 299 263 252 249 248 250 250 243 229 228 191 265 128 197 215 225 238 143 236 239 235 227 219 189 232 259 213 264 253 271 246 261
24 27 16 12 21 13 25 27 27 18 12 11 6 9 2 360 348 320 264 253 260 264 250 227 206 192 193 189 183 206 211 227 216 216 198 199 213 216 194 184 233 238 247 253 264 287 249
3 355 351 355 359 347 352 11 5 9 359 360 357 1 357 352 348 326 298 229 248 231 192 199 191 219 171 226 164 197 167 160 175 177 191 196 211 205 197 208 229 248 265 266 322 266 274
345 334 338 337 337 335 338 333 345 344 347 346 345 345 345 342 336 314 273 219 229 26 274 225 245 239 236 216 238 201 149 179 180 215 192 207 235 216 217 214 225 234 245 252 266 253 252
323 321 326 325 320 325 334 334 341 343 337 336 334 336 334 332 323 301 286 338 5 336 245 244 221 242 239 214 240 218 179 205 199 214 201 215 233 206 211 218 221 227 236 246 247 257 245
334 333 339 333 322 316 316 314 322 328 336 340 333 327 330 334 300 345 220 341 337 303 258 260 225 248 204 210 241 226 206 208 218 235 215 231 237 237 213 231 208 246 221 235 241 246 252
328 329 329 321 314 323 322 318 316 311 313 321 330 342 340 339 307 299 354 325 309 202 263 166 257 170 196 192 93 205 207 212 234 235 204 236 232 220 229 235 215 248 224 236 227 232 245
323 320 316 318 315 312 312 316 317 326 316 306 307 324 339 359 296 357 344 322 306 234 244 234 241 200 177 204 219 260 162 209 261 244 237 245 246 237 237 242 230 247 249 253 237 223 227
314 314 315 311 303 307 309 308 312 319 320 324 318 318 321 293 254 19 20 311 226 231 132 208 226 217 209 211 213 203 203 193 208 209 230 235 243 240 244 256 248 229 231 238 230 216 227
315 311 309 309 313 319 313 307 303 302 308 318 330 328 283 226 238 56 38 264 233 234 235 17 24 319 250 219 190 210 230 232 213 232 249 222 229 226 213 221 230 220 222 234 234 227 235
306 305 304 302 302 304 300 304 316 302 302 314 341 328 266 250 209 121 108 250 265 348 353 352 317 265 240 262 295 198 325 329 54 33 202 340 214 9 37 321 225 224 234 227 245 255 242
303 304 304 302 300 296 289 298 307 304 314 308 47 339 276 305 157 159 196 244 261 35 332 316 288 14 337 289 212 292 169 131 89 358 303 138 294 51 324 332 47 273 297 213 239 227 244
304 301 299 296 294 294 297 293 287 294 312 348 64 360 264 292 166 188 221 222 274 114 78 348 340 318 314 299 340 325 339 116 162 178 148 247 140 44 45 344 355 39 40 345 236 37 313
306 302 300 301 296 285 280 280 280 282 293 97 114 285 282 167 160 232 231 227 301 275 164 217 280 236 251 45 343 272 282 354 167 176 206 204 196 213 175 213 260 182 124 136 269 291 110
326 325 322 314 313 317 311 290 269 260 231 139 246 258 331 102 219 201 249 237 255 279 229 231 251 223 143 14 340 279 333 294 5 350 359 15 259 198 196 153 230 155 189 160 117 41 203
320 317 323 321 319 317 315 308 305 281 233 158 157 264 310 215 202 252 259 253 243 251 243 237 273 298 358 304 198 277 311 300 351 205 248 176 297 343 6 67 7 312 204 183 154 175 205
329 329 319 316 315 310 303 298 297 293 280 192 182 221 186 208 226 221 157 301 291 323 276 336 319 352 310 312 323 263 314 354 328 317 122 130 298 344 263 247 246 270 302 252 216 230 214
333 329 322 315 311 308 303 298 291 281 282 205 228 225 320 300 227 168 199 208 244 261 186 302 210 334 302 194 209 273 292 296 264 348 2 43 289 211 269 245 237 243 241 237 240 243 246
340 340 340 333 328 325 319 312 300 283 223 194 171 191 130 241 237 183 209 208 206 183 233 226 144 120 303 260 254 247 237 233 238 262 231 273 212 63 261 100 200 281 236 238 242 235 219
332 329 327 331 333 331 330 326 315 285 251 193 171 153 179 241 206 222 270 241 243 232 220 257 274 202 230 271 292 278 258 256 245 237 185 235 248 226 270 103 257 250 269 225 236 242 203
344 346 332 327 325 323 325 320 316 301 282 232 189 180 179 219 211 219 210 252 291 255 256 259 255 238 239 329 359 314 299 276 230 228 212 211 211 287 178 221 288 274 234 233 194 263 198
357 353 346 336 329 328 323 322 316 310 312 248 199 195 145 152 230 225 212 222 262 241 294 244 273 231 169 174 143 205 245 244 236 168 188 181 200 160 79 221 256 327 75 90 55 287 188
16 12 5 354 345 343 344 348 337 318 308 149 162 177 137 256 248 145 189 198 169 164 221 298 301 298 165 170 203 206 231 315 230 191 156 154 178 216 198 235 283 225 159 127 96 244 211
3 1 360 7 15 14 7 1 9 47 51 70 328 183 166 244 263 209 232 192 152 140 183 254 356 237 245 197 186 198 200 196 208 264 177 163 159 202 179 218 276 169 68 165 218 251 233
360 360 359 360 6 3 3 4 16 31 11 35 326 336 105 195 251 287 267 252 211 183 152 203 248 259 289 195 160 133 190 160 166 226 133 230 187 181 180 213 233 228 216 245 8 260 291